Theta_e
298 297 294 293 294 295 300 298 312 309 304 290 290 291 292 293 294 294 294 295 293 294 296 302 307 309 309 310 310 309 308 308 307 306 303 302 300 298 296 295 294 292 291 289
302 294 293 291 291 291 289 288 295 298 297 287 287 288 289 290 291 291 291 291 293 292 293 294 300 304 307 308 308 307 306 306 305 303 302 300 298 297 295 294 292 290 289 288
299 297 301 293 289 289 286 284 286 289 286 285 286 286 286 288 288 287 288 289 291 291 290 289 291 301 302 303 304 304 304 303 301 300 299 298 296 295 293 292 290 287 286 287
301 301 299 288 285 288 286 284 282 283 283 283 283 284 287 288 285 285 286 287 289 289 288 287 289 298 300 300 300 301 300 299 298 298 297 294 293 292 290 288 286 285 285 286
302 297 292 291 285 283 285 286 281 281 281 282 282 286 291 288 283 283 285 286 288 288 287 286 293 296 298 298 298 297 297 296 295 294 293 292 291 289 287 286 284 284 284 284
300 299 297 285 283 284 284 289 280 280 280 280 281 283 286 282 282 283 284 286 286 286 286 286 290 294 295 295 295 294 293 293 292 292 291 290 289 286 285 284 283 283 283 283
295 297 288 282 283 283 291 286 280 279 279 279 279 280 281 281 282 283 285 285 285 285 285 286 287 291 293 293 293 292 291 291 291 290 289 288 286 285 284 283 282 282 282 283
291 293 293 281 282 283 280 279 279 279 279 279 279 279 280 280 282 283 285 284 284 284 284 285 287 290 291 291 291 290 289 288 288 287 287 285 284 283 283 282 282 282 282 282
285 286 282 281 280 279 279 278 278 278 278 278 278 279 280 280 281 283 284 283 283 283 284 284 284 288 289 289 288 287 287 287 286 284 284 283 283 282 282 282 282 282 282 282
283 283 280 281 282 280 278 277 277 277 277 278 278 278 279 280 281 283 283 283 282 283 284 283 283 285 287 286 286 286 285 284 283 283 283 283 282 282 282 282 282 283 283 282
283 281 280 281 279 278 277 277 276 276 276 277 277 278 279 280 281 282 282 282 282 283 283 283 283 283 284 284 284 284 283 283 283 284 282 282 282 282 283 283 283 283 283 283
282 278 278 278 278 277 276 275 275 275 276 276 277 277 278 279 280 281 281 281 282 282 282 282 282 283 283 283 283 283 283 283 283 282 282 283 283 284 284 284 284 284 283 284
278 277 276 276 277 276 274 275 275 275 275 276 276 277 277 278 279 280 280 280 281 282 282 282 282 282 282 282 282 283 283 283 283 283 283 283 284 284 285 284 283 284 284 284
276 275 276 276 275 274 274 274 274 274 275 275 275 275 276 277 278 278 279 279 281 281 281 282 282 282 282 283 282 282 283 283 283 283 283 283 284 283 283 283 284 284 284 284
275 275 274 274 274 273 273 273 273 274 274 274 275 275 276 277 277 278 278 279 280 280 281 281 281 282 282 282 283 283 283 283 283 283 283 284 284 284 283 283 283 283 283 282
274 274 274 274 273 273 272 272 272 272 273 274 275 275 276 277 278 278 278 279 280 281 280 280 280 280 281 281 281 282 282 283 283 282 282 282 281 281 281 280 280 280 279 279
273 274 273 273 272 272 271 271 271 272 273 274 274 276 276 277 278 278 279 279 279 280 280 280 280 280 281 281 282 282 281 281 281 280 280 280 280 280 280 280 279 278 277 277
273 273 273 272 272 272 271 271 271 271 272 273 274 276 276 276 278 278 278 279 280 280 280 279 280 280 280 280 280 280 279 279 279 279 279 279 279 279 279 279 278 277 277 276
273 273 272 272 272 272 272 271 271 271 272 272 274 275 276 276 277 277 278 278 279 279 280 280 280 279 279 279 279 279 278 278 278 278 279 279 277 277 277 277 276 275 274 274
273 272 272 272 272 272 271 271 271 271 271 272 273 274 275 276 276 277 278 278 278 278 278 278 278 278 279 279 278 278 278 278 278 277 277 276 276 276 276 275 274 274 273 273
273 272 272 272 272 272 271 271 271 271 271 271 272 273 275 275 276 276 277 278 277 277 277 277 277 277 278 278 277 277 277 277 277 277 276 276 275 274 274 273 273 273 272 272
272 272 272 271 271 272 271 271 271 271 271 271 271 272 274 275 275 277 277 277 277 278 278 277 278 278 277 277 276 276 276 276 275 275 275 274 274 273 273 272 272 272 272 272
271 271 271 271 271 271 271 271 271 271 270 271 271 271 273 274 273 274 277 277 277 277 277 277 277 276 275 275 275 275 275 275 274 274 274 273 273 272 272 272 272 272 272 272
270 270 271 271 271 271 271 272 271 271 271 271 271 271 271 272 274 272 273 275 275 275 276 275 275 275 275 274 274 273 273 273 273 273 272 272 272 272 272 271 271 271 271 271
269 270 271 271 271 271 271 272 272 272 272 272 271 271 271 271 271 271 271 272 273 272 272 273 273 272 273 273 273 273 273 273 272 272 271 271 271 271 271 271 271 271 271 271
269 270 271 270 270 271 271 272 271 271 271 271 271 270 270 270 271 270 270 271 271 270 270 271 271 272 272 272 272 271 271 272 272 272 271 271 271 271 271 271 270 270 270 270
268 270 270 270 270 270 270 271 270 271 270 270 270 269 269 269 270 270 270 269 269 269 269 269 270 270 270 271 271 271 271 271 271 270 270 270 270 270 270 270 270 270 270 270
Wind_Speed
9 12 19 19 14 16 11 10 1 2 5 14 18 19 18 16 19 18 19 18 17 15 14 15 10 3 8 13 19 23 25 27 28 31 31 32 33 34 36 36 37 37 36 33
14 18 21 17 22 11 15 14 8 13 7 20 18 16 17 18 19 19 19 20 19 17 15 14 17 11 4 7 13 20 21 24 27 28 30 32 32 33 33 33 34 34 34 35
5 9 8 9 18 12 11 16 11 8 13 21 20 19 18 16 16 20 21 21 20 18 15 16 21 13 4 4 10 15 19 22 25 28 29 30 31 32 32 32 33 33 34 37
2 9 3 6 13 7 8 11 14 12 16 19 22 23 18 7 19 21 21 22 21 17 17 25 27 14 6 9 11 13 16 20 23 26 27 29 31 30 30 31 33 33 35 35
3 8 9 3 9 8 6 4 16 17 20 22 25 20 11 17 22 21 22 19 18 25 24 27 23 8 8 11 14 15 17 19 22 25 27 30 30 30 30 31 29 30 34 34
3 4 4 4 16 12 7 5 18 18 19 20 21 12 8 24 26 24 21 24 23 25 23 20 21 10 9 11 13 14 17 20 22 25 27 28 30 31 31 30 30 33 32 30
8 3 4 12 17 10 3 8 19 17 17 16 12 10 21 22 23 24 24 25 25 22 19 18 18 11 10 12 13 16 19 21 24 25 26 27 28 29 31 31 32 32 31 27
5 4 2 19 5 6 8 13 16 16 15 17 17 18 18 20 20 21 20 25 27 22 19 20 16 9 7 9 12 18 21 22 22 25 26 27 29 28 30 33 33 30 29 25
4 3 3 3 8 5 8 13 15 17 17 16 18 18 18 17 19 18 17 21 24 21 21 18 19 11 7 7 19 22 21 21 22 24 24 27 30 30 29 30 30 27 25 23
5 3 14 6 8 14 15 14 17 16 18 16 16 17 17 16 15 14 17 17 20 20 15 13 13 10 2 8 15 21 22 23 25 25 25 25 26 26 28 28 28 26 23 22
4 6 10 7 13 16 18 17 17 17 16 17 16 17 15 15 15 13 16 18 18 16 12 8 6 2 5 9 13 18 23 22 22 24 25 25 23 24 27 25 27 26 23 24
2 7 7 14 16 18 16 17 18 18 18 17 15 16 17 14 15 16 15 18 16 15 11 7 4 2 8 15 19 18 21 22 21 24 25 26 27 27 24 26 25 24 25 24
5 11 12 13 13 14 16 18 18 17 16 16 17 17 18 14 18 19 18 17 16 15 11 7 4 4 8 17 22 20 20 23 24 25 25 25 25 26 26 25 25 25 23 22
2 10 4 7 8 14 16 18 21 19 17 17 18 19 18 16 18 17 16 18 17 13 10 9 9 7 7 11 16 20 23 26 27 26 27 27 26 28 28 26 24 24 21 22
7 9 9 12 12 10 14 14 14 14 14 14 19 16 17 12 11 16 18 17 12 11 10 12 15 12 12 16 17 17 19 20 22 24 26 27 27 25 24 23 22 24 25 21
11 10 8 9 10 10 10 9 10 12 12 13 15 17 18 17 16 16 17 16 12 9 11 13 14 12 15 18 21 21 22 24 25 24 26 27 26 27 25 24 21 20 19 16
8 9 12 11 9 10 9 8 8 10 12 13 17 19 18 16 13 15 16 15 14 14 14 13 13 13 16 18 17 18 20 23 26 26 25 26 24 23 23 22 21 18 15 12
7 7 8 9 9 9 10 11 12 14 13 18 19 16 14 15 11 15 17 19 17 17 16 14 14 17 19 21 21 21 22 21 23 24 26 26 25 23 22 22 22 20 18 15
9 9 10 11 12 12 12 12 13 15 17 18 16 15 14 15 16 16 17 16 15 14 18 15 15 16 17 17 20 21 22 23 24 24 25 25 24 22 21 19 18 17 15 13
9 10 10 11 11 11 13 15 16 14 16 18 16 15 14 16 16 14 13 15 18 15 14 15 15 16 16 16 18 20 21 23 23 23 23 23 22 21 19 18 17 15 14 13
11 11 10 11 12 12 13 15 15 15 16 16 15 14 13 14 16 15 13 11 16 14 14 12 11 11 13 15 19 22 22 22 22 20 20 20 20 18 17 17 16 15 12 11
13 11 10 11 11 12 13 14 13 14 15 16 16 15 14 14 15 10 14 13 14 15 14 12 11 12 13 15 18 21 23 24 24 23 21 19 18 17 16 15 14 14 11 9
13 12 10 11 11 11 11 12 13 13 13 14 15 16 13 10 13 12 6 15 16 17 18 17 14 13 14 16 17 17 19 20 20 20 21 20 19 18 16 14 12 11 9 7
14 13 10 10 11 9 10 12 12 11 11 12 13 15 15 14 11 18 18 17 17 19 18 14 13 13 13 15 16 17 17 17 18 17 17 16 16 15 13 12 9 8 6 4
15 14 8 10 9 10 11 11 10 10 11 9 12 13 13 13 11 13 14 13 13 10 12 14 13 12 14 15 16 17 17 16 15 14 13 12 12 11 9 8 6 4 3 2
15 13 10 9 8 10 11 10 8 9 9 11 9 12 12 12 12 11 9 10 10 10 10 12 11 11 13 13 15 15 15 14 13 12 9 8 7 7 5 4 3 1 1 3
14 13 10 10 8 10 11 9 8 8 11 7 8 9 10 11 10 10 9 8 8 8 8 8 8 8 8 9 10 10 10 10 9 9 8 7 6 4 2 1 1 3 4 6
Wind_Direction
293 104 66 44 34 25 45 13 327 330 90 25 357 346 344 351 356 2 4 6 5 358 350 346 345 298 210 195 187 184 183 186 186 185 180 181 181 180 177 175 173 171 168 168
89 107 93 61 28 31 33 9 12 347 95 7 342 342 341 343 349 354 356 351 351 351 350 343 334 321 297 191 186 179 179 184 181 176 177 176 177 178 177 172 168 166 165 165
152 188 290 16 4 63 70 35 353 19 333 335 340 337 329 327 353 349 344 342 342 342 339 330 323 299 282 204 178 182 180 176 170 171 173 175 173 174 170 166 162 160 162 169
283 214 61 123 29 38 71 57 24 353 343 340 333 324 300 66 3 346 339 336 333 332 332 326 315 282 224 187 169 173 167 167 170 172 168 166 169 168 163 160 160 161 163 169
333 63 121 172 19 328 325 69 22 354 346 343 341 325 103 1 355 337 329 326 324 326 326 321 319 259 209 179 177 179 173 171 171 169 168 168 166 163 160 156 155 154 159 164
339 53 53 41 328 325 201 225 11 355 344 342 344 350 320 336 327 325 323 321 326 323 319 318 322 278 210 188 175 170 168 169 171 173 171 168 164 159 156 154 149 150 149 162
8 52 104 357 332 312 244 340 341 339 334 335 328 308 305 312 314 317 318 325 323 321 316 318 317 276 224 195 183 175 170 169 169 168 166 162 155 153 148 143 139 138 142 147
331 354 49 2 29 37 323 318 325 327 327 322 317 313 310 313 315 318 326 329 329 325 325 328 323 296 230 187 175 165 159 157 159 159 156 154 148 145 143 139 131 130 130 129
5 23 355 37 84 23 346 328 329 325 325 321 315 315 316 314 314 316 325 325 324 323 325 332 345 313 279 195 161 152 150 152 150 145 146 148 144 141 136 135 132 132 127 129
318 90 337 186 231 1 348 333 329 327 323 318 315 318 313 315 316 318 325 325 324 323 326 327 341 355 237 176 158 149 145 144 142 140 139 141 140 141 137 136 130 133 133 133
270 25 342 88 335 342 332 330 331 328 320 323 322 317 319 317 317 320 318 327 323 320 322 328 341 11 176 162 161 152 137 137 137 140 137 133 132 136 130 131 138 139 142 144
9 355 322 307 328 328 332 331 328 327 327 325 324 319 323 320 322 320 330 329 328 327 329 337 6 104 148 159 149 140 130 134 134 132 130 129 126 119 128 139 144 144 144 142
296 328 311 303 312 347 329 327 326 328 324 325 325 324 325 323 325 334 330 336 337 333 342 358 27 93 148 154 150 142 132 130 132 128 129 125 126 127 124 123 128 131 135 134
338 337 319 360 328 323 321 324 326 326 333 331 329 327 326 322 330 337 336 334 338 351 11 44 60 74 139 139 138 135 137 135 133 131 129 127 128 127 127 132 132 131 130 128
323 327 301 306 309 324 329 332 335 336 331 331 333 331 333 332 335 336 337 340 348 15 30 54 61 66 108 121 122 125 125 126 128 129 129 130 131 128 124 120 116 122 122 118
319 311 311 316 324 334 340 341 332 327 329 327 333 338 339 338 340 346 350 357 9 12 33 51 64 86 111 116 106 105 110 112 110 109 110 112 109 111 112 112 106 103 104 112
323 333 334 330 335 331 327 319 320 318 322 329 332 339 346 350 358 360 2 13 26 32 42 55 71 89 107 106 103 104 105 111 114 109 107 108 107 109 113 111 105 106 112 120
316 305 308 307 315 324 327 334 335 333 332 330 336 347 1 7 6 8 12 15 27 39 44 53 73 85 92 103 103 104 104 106 109 110 110 109 109 112 111 109 112 110 106 107
339 329 328 328 328 325 328 334 340 335 339 343 347 354 2 10 11 14 17 21 21 24 28 55 65 77 83 93 110 110 108 108 107 107 110 111 107 108 108 109 112 117 120 114
348 349 342 336 338 339 332 337 339 348 353 353 351 4 3 9 8 7 22 32 24 28 41 52 67 77 87 93 101 101 104 105 106 108 110 109 110 109 112 115 115 113 117 117
342 343 344 343 338 342 343 341 343 348 351 359 356 353 354 1 4 16 18 34 25 25 30 39 57 73 89 99 109 104 103 101 99 102 105 108 112 112 115 116 119 121 119 113
341 339 340 344 341 341 347 349 352 353 358 1 1 4 6 15 7 23 40 27 29 36 38 43 55 79 93 109 114 117 118 116 115 117 113 115 115 116 119 127 126 122 119 109
341 335 336 342 340 333 340 354 356 359 2 3 4 3 2 16 25 11 4 42 40 42 51 60 65 73 83 102 108 111 113 116 119 126 131 134 134 132 131 127 125 121 117 100
335 334 326 336 338 343 350 352 352 357 6 7 8 14 12 5 17 28 41 39 38 46 44 49 63 76 105 106 108 111 112 117 122 125 125 130 129 130 132 128 123 115 111 93
334 330 344 347 344 348 339 344 351 356 4 7 6 7 10 15 16 4 21 32 36 43 54 47 54 74 94 103 110 115 116 119 120 122 124 125 124 124 125 125 128 123 108 53
333 328 338 341 342 342 337 347 356 357 9 1 3 2 2 6 11 11 14 19 30 33 52 54 57 79 90 101 109 111 117 121 122 121 123 121 121 125 126 128 123 91 349 302
332 340 347 348 353 349 342 1 8 358 359 6 354 360 358 360 4 12 15 19 25 31 42 51 60 72 93 107 114 118 123 123 126 129 136 140 140 142 143 137 358 347 326 316